GW2248 Weather Reports


Display with metric or nautical units.
time (UTC)temp
F
wind
direction
speed
MPH
gust
MPH
rain 1hr
in
rain 24hr
in
rain mn
in
humidity
%
barometer
mb
20260504044541 54 201 1.0 2.0 0.00 0.00 0.00 43 1012.7
20260504044038 54 97 0.0 2.0 0.00 0.00 0.00 44 1012.5
20260504043535 54 350 0.0 0.0 0.00 0.00 0.00 44 1012.6
20260504043032 54 97 0.0 2.0 0.00 0.00 0.00 44 1012.5
20260504042529 54 84 0.0 0.0 0.00 0.00 0.00 43 1012.6
20260504042026 54 183 0.0 0.0 0.00 0.00 0.00 43 1012.4
20260504041522 54 281 2.0 3.0 0.00 0.00 0.00 43 1012.5
20260504041018 54 272 1.0 3.0 0.00 0.00 0.00 43 1012.3
20260504040516 54 85 0.0 0.0 0.00 0.00 0.00 42 1012.3
20260504040012 54 78 0.0 0.0 0.00 0.00 0.00 42 1012.4
20260504035509 54 64 0.0 0.0 0.00 0.00 0.00 42 1012.3
20260504035005 54 245 1.0 2.0 0.00 0.00 0.00 41 1012.3
20260504034503 54 113 0.0 2.0 0.00 0.00 0.00 41 1012.4
20260504034000 54 88 0.0 0.0 0.00 0.00 0.00 41 1012.5
20260504033458 55 265 0.0 2.0 0.00 0.00 0.00 41 1012.3
20260504032955 55 268 1.0 2.0 0.00 0.00 0.00 40 1012.4
20260504032452 55 80 0.0 0.0 0.00 0.00 0.00 40 1012.1
20260504031948 55 51 0.0 0.0 0.00 0.00 0.00 40 1012.4
20260504031445 55 65 0.0 0.0 0.00 0.00 0.00 40 1012.1
20260504030942 55 18 1.0 2.0 0.00 0.00 0.00 40 1012.3
20260504030439 55 97 0.0 0.0 0.00 0.00 0.00 40 1012.3
20260504025935 55 41 0.0 2.0 0.00 0.00 0.00 39 1012.1
20260504025432 55 115 0.0 2.0 0.00 0.00 0.00 39 1012.0
20260504024929 55 261 1.0 2.0 0.00 0.00 0.00 38 1012.4
20260504024426 55 87 0.0 0.0 0.00 0.00 0.00 38 1012.3
20260504023923 55 276 0.0 2.0 0.00 0.00 0.00 37 1012.2
20260504023419 55 82 0.0 0.0 0.00 0.00 0.00 37 1012.2
20260504022915 55 66 0.0 0.0 0.00 0.00 0.00 37 1012.2
20260504022412 55 62 0.0 0.0 0.00 0.00 0.00 37 1012.1
20260504021908 55 75 0.0 0.0 0.00 0.00 0.00 37 1012.2
20260504021406 55 58 0.0 0.0 0.00 0.00 0.00 37 1012.1
20260504020903 55 67 0.0 0.0 0.00 0.00 0.00 37 1012.4
20260504020359 55 61 0.0 0.0 0.00 0.00 0.00 37 1012.1
20260504015855 55 66 0.0 0.0 0.00 0.00 0.00 36 1012.2
20260504015352 55 67 0.0 0.0 0.00 0.00 0.00 36 1012.1
20260504014848 55 70 0.0 0.0 0.00 0.00 0.00 36 1012.1
20260504014344 55 70 0.0 0.0 0.00 0.00 0.00 35 1012.2
20260504013842 55 76 0.0 0.0 0.00 0.00 0.00 36 1012.1
20260504013339 55 73 0.0 0.0 0.00 0.00 0.00 36 1011.9
20260504012836 55 92 0.0 0.0 0.00 0.00 0.00 35 1011.9
20260504012334 56 58 0.0 0.0 0.00 0.00 0.00 35 1011.9
20260504011831 56 57 0.0 0.0 0.00 0.00 0.00 34 1011.8
20260504011327 57 68 0.0 0.0 0.00 0.00 0.00 33 1011.7
20260504010823 57 75 0.0 0.0 0.00 0.00 0.00 33 1011.6
20260504010319 57 11 0.0 2.0 0.00 0.00 0.00 33 1011.7
20260504005816 57 84 0.0 0.0 0.00 0.00 0.00 33 1011.4
20260504005313 58 78 0.0 0.0 0.00 0.00 0.00 32 1011.4
20260504004810 58 96 0.0 0.0 0.00 0.00 0.00 31 1011.5
20260504004308 58 46 1.0 2.0 0.00 0.00 0.00 31 1011.4
20260504003804 58 92 0.0 0.0 0.00 0.00 0.00 30 1011.5
20260504003301 58 52 0.0 0.0 0.00 0.00 0.00 30 1011.2
20260504002757 58 72 0.0 0.0 0.00 0.00 0.00 29 1011.1
20260504002255 58 84 0.0 0.0 0.00 0.00 0.00 29 1011.0
20260504001752 59 85 0.0 0.0 0.00 0.00 0.00 28 1011.0
20260504001249 59 43 1.0 2.0 0.00 0.00 0.00 28 1010.9
20260504000746 59 68 0.0 0.0 0.00 0.00 0.00 27 1010.8
20260504000243 59 64 0.0 0.0 0.00 0.00 0.00 27 1010.7
20260503235741 59 35 0.0 0.0 0.00 0.00 0.00 27 1010.7
20260503235238 59 345 0.0 2.0 0.00 0.00 0.00 27 1010.7
20260503234735 59 51 0.0 2.0 0.00 0.00 0.00 27 1010.8
20260503234233 60 8 2.0 3.0 0.00 0.00 0.00 26 1010.3
20260503233730 60 7 2.0 2.0 0.00 0.00 0.00 26 1010.5
20260503233226 60 9 2.0 3.0 0.00 0.00 0.00 26 1010.8
20260503232723 60 271 2.0 3.0 0.00 0.00 0.00 26 1010.5
20260503232220 60 17 2.0 3.0 0.00 0.00 0.00 25 1010.2
20260503231719 60 274 3.0 3.0 0.00 0.00 0.00 25 1010.2
20260503231215 60 304 2.0 3.0 0.00 0.00 0.00 25 1010.1
20260503230711 60 335 3.0 3.0 0.00 0.00 0.00 25 1010.5
20260503230208 60 96 1.0 2.0 0.00 0.00 0.00 25 1010.1
20260503225705 60 0 4.0 5.0 0.00 0.00 0.00 24 1010.3
20260503225200 60 96 5.0 7.0 0.00 0.00 0.00 24 1010.4
20260503224658 60 90 1.0 3.0 0.00 0.00 0.00 24 1010.2
20260503224155 60 313 3.0 3.0 0.00 0.00 0.00 24 1010.3
20260503223653 60 73 3.0 5.0 0.00 0.00 0.00 24 1010.1
20260503223149 60 277 3.0 3.0 0.00 0.00 0.00 24 1010.2
20260503222646 60 2 3.0 5.0 0.00 0.00 0.00 24 1010.0
20260503222144 60 261 3.0 3.0 0.00 0.00 0.00 23 1010.1
20260503221643 60 286 5.0 7.0 0.00 0.00 0.00 24 1010.0
20260503221139 60 300 5.0 5.0 0.00 0.00 0.00 23 1010.1
20260503220636 60 270 5.0 17.0 0.00 0.00 0.00 24 1010.1
20260503220132 60 11 7.0 9.0 0.00 0.00 0.00 23 1010.3
20260503215624 60 356 4.0 5.0 0.00 0.00 0.00 24 1010.2
20260503215120 61 28 3.0 5.0 0.00 0.00 0.00 24 1010.1
20260503214619 61 250 3.0 5.0 0.00 0.00 0.00 24 1010.0
20260503214114 61 66 4.0 5.0 0.00 0.00 0.00 24 1010.0
20260503213609 61 261 5.0 5.0 0.00 0.00 0.00 24 1009.9
20260503213104 61 79 3.0 5.0 0.00 0.00 0.00 24 1010.1
20260503212602 61 93 1.0 2.0 0.00 0.00 0.00 24 1009.9
20260503212059 62 355 5.0 7.0 0.00 0.00 0.00 23 1010.1
20260503211556 61 12 1.0 2.0 0.00 0.00 0.00 24 1010.0
20260503211052 61 32 3.0 3.0 0.00 0.00 0.00 24 1009.9
20260503210549 61 40 3.0 5.0 0.00 0.00 0.00 24 1009.9
20260503210044 61 265 3.0 5.0 0.00 0.00 0.00 24 1010.0
20260503205541 60 218 5.0 7.0 0.00 0.00 0.00 24 1010.1
20260503205038 61 289 4.0 5.0 0.00 0.00 0.00 24 1009.9
20260503204535 61 180 3.0 3.0 0.00 0.00 0.00 24 1009.9
20260503204032 61 293 5.0 9.0 0.00 0.00 0.00 24 1009.8
20260503203529 61 328 5.0 9.0 0.00 0.00 0.00 24 1010.0
20260503203026 61 272 3.0 3.0 0.00 0.00 0.00 24 1010.0
20260503202524 61 248 1.0 2.0 0.00 0.00 0.00 24 1010.0
20260503202022 61 33 4.0 5.0 0.00 0.00 0.00 24 1010.0
20260503201520 61 330 5.0 7.0 0.00 0.00 0.00 25 1010.1
20260503201017 62 236 5.0 7.0 0.00 0.00 0.00 24 1010.2
20260503200513 60 261 3.0 5.0 0.00 0.00 0.00 25 1010.3
20260503200010 60 356 6.0 12.0 0.00 0.00 0.00 26 1010.2
20260503195507 58 294 5.0 5.0 0.00 0.00 0.00 27 1010.1
20260503195003 60 25 3.0 5.0 0.00 0.00 0.00 26 1010.2
20260503194501 61 290 6.0 9.0 0.00 0.00 0.00 25 1010.4
20260503193955 60 217 3.0 3.0 0.00 0.00 0.00 26 1010.2
20260503193451 60 297 4.0 5.0 0.00 0.00 0.00 26 1010.4
20260503192947 60 295 5.0 7.0 0.00 0.00 0.00 26 1010.6
20260503192443 60 298 4.0 5.0 0.00 0.00 0.00 26 1010.4
20260503191939 60 267 5.0 9.0 0.00 0.00 0.00 26 1010.5
20260503191437 60 333 4.0 5.0 0.00 0.00 0.00 26 1010.2
20260503190933 60 269 5.0 7.0 0.00 0.00 0.00 27 1010.5
20260503190431 61 342 5.0 7.0 0.00 0.00 0.00 27 1010.6
20260503185927 61 27 0.0 0.0 0.00 0.00 0.00 27 1010.7
20260503185424 60 327 2.0 2.0 0.00 0.00 0.00 27 1010.6
20260503184923 60 28 3.0 3.0 0.00 0.00 0.00 28 1010.8
20260503184420 60 61 4.0 5.0 0.00 0.00 0.00 28 1010.6
20260503183916 59 352 2.0 3.0 0.00 0.00 0.00 29 1011.0
20260503183412 59 94 5.0 9.0 0.00 0.00 0.00 30 1011.1
20260503182910 59 291 5.0 5.0 0.00 0.00 0.00 30 1011.1
20260503182409 59 346 6.0 7.0 0.00 0.00 0.00 29 1010.9
20260503181906 59 319 4.0 5.0 0.00 0.00 0.00 29 1011.0
20260503181403 58 303 4.0 5.0 0.00 0.00 0.00 29 1011.0
20260503180859 57 323 5.0 9.0 0.00 0.00 0.00 31 1011.1
20260503180357 58 21 5.0 7.0 0.00 0.00 0.00 31 1011.0
20260503175853 57 279 3.0 7.0 0.00 0.00 0.00 29 1011.0
20260503175351 57 348 3.0 7.0 0.00 0.00 0.00 31 1010.8
20260503174847 57 352 7.0 9.0 0.00 0.00 0.00 31 1011.2
20260503174345 58 175 9.0 10.0 0.00 0.00 0.00 30 1011.0
20260503173839 58 295 4.0 5.0 0.00 0.00 0.00 30 1010.9
20260503173336 56 255 3.0 5.0 0.00 0.00 0.00 32 1010.7
20260503172833 57 57 4.0 5.0 0.00 0.00 0.00 31 1010.8
20260503172331 57 344 2.0 3.0 0.00 0.00 0.00 31 1010.8
20260503171826 55 26 3.0 3.0 0.00 0.00 0.00 31 1011.1
20260503171323 56 310 5.0 5.0 0.00 0.00 0.00 31 1011.3
20260503170821 56 57 2.0 2.0 0.00 0.00 0.00 32 1011.2
20260503170317 56 25 3.0 3.0 0.00 0.00 0.00 32 1011.2
20260503150515 56 32 6.0 9.0 0.00 0.00 0.00 31 1011.4
20260503131402 51 34 3.0 7.0 0.00 0.00 0.00 44 1011.7
20260503130859 51 35 2.0 3.0 0.00 0.00 0.00 44 1011.8
20260503130356 51 122 4.0 5.0 0.00 0.00 0.00 44 1011.8
20260503110750 47 91 1.0 3.0 0.00 0.00 0.00 50 1011.0
20260503110247 47 282 2.0 3.0 0.00 0.00 0.00 50 1010.8
20260503100213 47 20 1.0 2.0 0.00 0.00 0.00 51 1010.1
20260503090137 48 33 3.0 5.0 0.00 0.00 0.00 50 1009.8
20260503081613 48 92 4.0 7.0 0.00 0.00 0.00 50 1010.0
20260503081110 48 29 0.0 2.0 0.00 0.00 0.00 50 1009.8
20260503080606 48 62 1.0 2.0 0.00 0.00 0.00 50 1009.9
20260503080103 48 36 3.0 5.0 0.00 0.00 0.00 50 1009.9
20260503072540 49 102 4.0 5.0 0.00 0.00 0.00 45 1009.8
20260503072037 50 348 3.0 3.0 0.00 0.00 0.00 45 1009.7
20260503071534 50 343 3.0 5.0 0.00 0.00 0.00 44 1009.7
20260503071031 50 317 5.0 7.0 0.00 0.00 0.00 44 1009.6
20260503070527 50 51 5.0 7.0 0.00 0.00 0.00 44 1009.8
20260503054940 51 79 5.0 7.0 0.00 0.00 0.00 43 1010.2
20260503054436 52 39 5.0 7.0 0.00 0.00 0.00 42 1010.1
20260503053934 52 144 2.0 2.0 0.00 0.00 0.00 42 1010.2
20260503053432 52 60 3.0 3.0 0.00 0.00 0.00 42 1010.2
20260503052928 52 42 1.0 2.0 0.00 0.00 0.00 42 1010.2
20260503052426 52 58 5.0 7.0 0.00 0.00 0.00 41 1010.2
20260503051921 52 22 3.0 5.0 0.00 0.00 0.00 41 1010.5
20260503051418 52 44 3.0 3.0 0.00 0.00 0.00 40 1010.5
20260503050915 52 345 2.0 3.0 0.00 0.00 0.00 40 1010.4
20260503050411 53 107 4.0 7.0 0.00 0.00 0.00 40 1010.6
20260503045909 53 312 3.0 3.0 0.00 0.00 0.00 41 1010.7
20260503045406 53 51 5.0 9.0 0.00 0.00 0.00 41 1010.8
20260503044903 53 6 4.0 5.0 0.00 0.00 0.00 41 1010.6